Location: Eurasberg
(48.3353°N, 11.0839°E)
Time: 14:45:22
(UTC+00:00)

IRS-1D - Pass Details

Date: 18 January 2026
Orbit: 737 x 810 km, 98.8° (Epoch: 17 February)

Event Time Altitude Azimuth Distance (km) Brightness Sun altitude
Rises 05:16:23 0° 9° (N) 3,336 6.8 -16.8°
Reaches altitude 10° 05:18:49 10° 3° (N) 2,405 6.0 -16.4°
Maximum altitude 05:23:48 42° 294° (WNW) 1,148 3.9 -15.5°
Drops below altitude 10° 05:28:45 10° 225° (SW) 2,389 5.8 -14.8°
Sets 05:31:10 0° 218° (SW) 3,312 6.6 -14.4°
